[[{"header":{"parameterUnit":"m.s-1","parameterCategory":1,"la1":30.2991,"la2":30.254,"lo1":-89.0895,"lo2":-89.0444,"dy":0.0017,"dx":0.0017,"nx":28,"ny":28,"refTime":"2025-06-10T21:00:00:Z","depth":0,"parameterNumber":2,"parameterNumberName":"U-component_of_WINDS"},"data":[0,0,0,0,0,0,0,0,0,0,0,0,0,0,0,0,0,0,0,0,0,0,0,0,0,0,0,0,0,0,0,0,0,0,0,0,0,0,0,0,0,0,0,0,0,0,0,0,0,0,0,0,0,0,0,0,0,0,2.9338,2.9339,0,2.9444,2.9445,2.9446,2.9407,2.9405,2.9402,2.94,2.9505,2.9509,2.9514,0,0,0,0,0,0,0,0,0,0,0,0,0,2.91,2.9105,2.9338,2.9339,2.9341,2.9443,2.9445,2.9446,2.9407,2.9404,2.9402,2.9399,2.9503,2.9509,2.9515,0,0,0,0,0,0,0,0,0,0,0,0,0,2.9204,2.9106,2.9338,2.9334,2.9334,2.9443,2.9445,2.9447,2.9408,2.9404,2.9401,2.9397,2.9501,2.9508,2.9516,2.9634,0,0,2.9539,2.9542,0,0,0,0,0,0,0,0,2.9198,2.9213,2.9333,2.9334,2.9335,2.9409,2.9399,2.9509,2.9409,2.938,2.94,2.9396,2.9475,2.9485,2.9512,2.9639,2.9643,2.9539,2.9544,2.9547,2.9549,0,0,0,0,0,0,0,2.9191,2.9208,2.938,2.9335,2.9336,2.9326,2.9337,2.942,2.9446,2.9382,2.938,2.9393,2.9475,2.9505,2.9514,2.9645,2.9539,2.9546,2.955,2.9553,2.9873,2.9877,0,0,0,0,0,0,2.9184,2.9202,2.9376,2.9383,2.9257,2.9333,2.9345,2.9389,2.9445,2.9451,2.9396,2.9391,2.9494,2.9506,2.9518,2.966,2.9547,2.9554,2.9558,2.9869,2.9874,2.9878,0,0,0,0,0,0,2.9179,2.92,2.9372,2.9292,2.9313,2.9341,2.939,2.9393,2.9422,2.9456,2.946,2.9422,2.9492,2.9507,2.9605,2.9663,2.9557,2.9564,2.9864,2.9871,2.9876,2.9944,0,0,0,0,0,0,2.9172,2.9198,2.9244,2.9293,2.9318,2.9459,2.9394,2.9397,2.9436,2.943,2.9481,2.9486,2.949,2.9594,2.9613,2.9671,2.957,2.9859,2.9867,2.9874,2.9937,2.9952,2.9964,0,0,0,0,0,2.9164,2.9258,2.9247,2.9268,2.9376,2.9462,2.9476,2.948,2.9441,2.9486,2.9508,2.9484,2.9654,2.9605,2.9625,2.9687,2.9856,2.9865,2.9874,2.9931,2.9949,2.9964,0,0,0,0,0,0,2.9213,2.9264,2.9252,2.9365,2.941,2.9455,2.9513,2.9499,2.9554,2.9546,2.9548,2.956,2.9661,2.9683,2.9628,2.9804,2.9749,2.9762,2.9785,2.9803,2.9816,2.9808,2.9576,0,0,0,0,0,2.9237,2.9305,2.9345,2.9441,2.9465,2.9485,2.9523,2.9522,2.9568,2.9586,2.9615,2.9659,2.9722,2.9764,2.9824,2.994,2.995,2.9993,3.0006,3.0017,3.0029,3.0092,3.0111,2.9908,2.9908,2.9907,0,0,2.9287,2.9324,2.9366,2.9452,2.9487,2.9555,2.9501,2.9576,2.9627,2.9597,2.9692,2.9715,2.9764,2.9872,2.9921,2.9894,3.0087,3.0029,3.0038,3.0043,3.0103,3.0122,3.0139,2.9914,2.9913,2.9912,0,0,2.9414,2.9449,2.9533,2.9569,2.9622,2.9636,2.9656,2.9704,2.9719,2.9814,2.9793,2.9853,2.9962,2.9998,3.0031,3.0173,3.0153,3.0192,3.0264,3.0325,3.0341,3.0355,3.0406,3.0424,3.0204,3.0204,3.0204,0,2.9469,2.9573,2.9577,2.9654,2.9692,2.9671,2.9755,2.9789,2.9859,2.9886,2.9855,2.9992,3.0024,3.014,3.0175,3.0202,3.0224,3.0186,3.0339,3.0353,3.0366,3.0414,3.0433,3.0208,3.0208,3.0207,3.0207,0,2.9638,2.971,2.9771,2.9841,2.9886,2.9966,2.9982,3.0027,3.0023,3.0039,3.0137,3.0174,3.0242,3.0269,3.0265,3.0385,3.0367,3.0338,3.0282,3.039,3.0435,3.0453,3.0214,3.0213,3.0212,3.0211,0,0,2.9796,2.9869,2.9891,2.9923,2.9981,3.0036,3.0115,3.0183,3.0221,3.027,3.0336,3.043,3.0404,3.0441,3.0441,3.0495,3.0605,3.0459,3.046,3.0484,3.0738,3.0759,3.078,3.0592,3.0596,3.0599,3.0734,0,2.9927,3.0067,3.0074,3.0201,3.0268,3.0249,3.0318,3.0361,3.0379,3.0437,3.0456,3.0522,3.0483,3.0505,3.0558,3.058,3.0655,3.057,3.0653,3.0656,3.064,3.0804,3.0826,3.0952,3.0752,3.0755,3.0757,0,3.0098,3.0154,3.0288,3.0338,3.0366,3.0428,3.049,3.0547,3.0595,3.0604,3.0646,3.0639,3.0719,3.0662,3.0772,3.0715,3.0749,3.0765,3.077,3.0776,3.0712,3.0814,3.0992,3.1011,3.0785,3.0782,3.078,0,3.0199,3.0308,3.0403,3.0431,3.0491,3.0535,3.0562,3.0606,3.0647,3.0701,3.0727,3.079,3.0824,3.0872,3.0881,3.0839,3.0992,3.0935,3.1001,3.1001,3.1033,3.103,3.1218,3.1057,3.1056,3.1056,3.1056,0,3.0343,3.0426,3.045,3.0508,3.06,3.0607,3.0697,3.0721,3.0761,3.0823,3.081,3.0868,3.0877,3.0937,3.0945,3.1035,3.1051,3.106,3.1061,3.1061,3.1059,3.1082,3.1073,3.1061,3.106,3.1059,3.1058,0,3.0472,3.0491,3.0593,3.0642,3.0656,3.0722,3.0764,3.0819,3.0836,3.0914,3.0933,3.0959,3.1029,3.1044,3.1127,3.1132,3.1239,3.1231,3.1223,3.1222,3.1286,3.128,3.1494,3.1522,3.1343,3.1345,3.1346,0,3.0562,3.0625,3.0682,3.0724,3.0753,3.0819,3.0861,3.087,3.0914,3.0974,3.1022,3.1091,3.1146,3.1259,3.1285,3.1348,3.1342,3.1413,3.1351,3.1349,3.1342,3.1338,3.1344,3.1424,3.1426,3.1427,3.1429,0,3.072,3.0727,3.0788,3.0853,3.0903,3.0954,3.1003,3.1037,3.1053,3.1103,3.1175,3.1218,3.1304,3.1372,3.1436,3.1462,3.1448,3.1448,3.1466,3.1466,3.1459,3.1463,3.1254,3.1443,3.1441,3.144,3.144,3.1439,3.0831,3.0887,3.0936,3.1005,3.1043,3.1089,3.1144,3.1169,3.123,3.1301,3.1302,3.1381,3.1428,3.1512,3.1543,3.1604,3.1581,3.1608,3.1615,3.1621,3.1627,3.145,3.1615,3.1615,3.1615,3.1614,3.1614,0,3.0988,3.1019,3.1083,3.1152,3.1206,3.119,3.1244,3.1289,3.1359,3.1405,3.1461,3.1544,3.161,3.1642,3.1708,3.1751,3.1746,3.1768,3.1764,3.1771,3.1643,3.162,3.1771,3.1771,3.1771,3.1771,3.1771,3.177,3.1076,3.117,3.1183,3.1295,3.1325,3.1403,3.1435,3.1477,3.1514,3.1608,3.1664,3.1685,3.1725,3.1794,3.1854,3.1862,3.1886,3.1911,3.1915,3.1795,3.1779,3.1764,3.1743,3.1916,3.1916,3.2037,3.2038,3.2039]},{"header":{"parameterUnit":"m.s-1","parameterCategory":1,"la1":30.2991,"la2":30.254,"lo1":-89.0895,"lo2":-89.0444,"dy":0.0017,"dx":0.0017,"nx":28,"ny":28,"refTime":"2025-06-10T21:00:00:Z","depth":0,"parameterNumber":3,"parameterNumberName":"V-component_of_WINDS"},"data":[0,0,0,0,0,0,0,0,0,0,0,0,0,0,0,0,0,0,0,0,0,0,0,0,0,0,0,0,0,0,0,0,0,0,0,0,0,0,0,0,0,0,0,0,0,0,0,0,0,0,0,0,0,0,0,0,0,0,2.5076,2.5075,0,2.5002,2.5002,2.5001,2.4978,2.4979,2.4979,2.4979,2.4897,2.4895,2.4892,0,0,0,0,0,0,0,0,0,0,0,0,0,2.5188,2.5186,2.5076,2.5075,2.5074,2.5003,2.5001,2.5,2.4978,2.4979,2.4979,2.4979,2.4898,2.4895,2.4892,0,0,0,0,0,0,0,0,0,0,0,0,0,2.513,2.5186,2.5076,2.5054,2.5052,2.5003,2.5001,2.5,2.4978,2.4979,2.4979,2.498,2.4899,2.4896,2.4892,2.4857,0,0,2.488,2.4879,0,0,0,0,0,0,0,0,2.5133,2.5125,2.5058,2.5056,2.5053,2.5,2.5011,2.4952,2.4978,2.5006,2.4979,2.498,2.4931,2.4924,2.4909,2.4853,2.485,2.488,2.4878,2.4876,2.4875,0,0,0,0,0,0,0,2.5137,2.5128,2.5046,2.5057,2.5054,2.5046,2.5038,2.5,2.4966,2.5003,2.5002,2.4994,2.4929,2.4913,2.4907,2.4848,2.488,2.4877,2.4874,2.4873,2.4757,2.4756,0,0,0,0,0,0,2.5146,2.5132,2.5049,2.5044,2.5095,2.5043,2.5035,2.5016,2.4966,2.4959,2.4993,2.4993,2.4919,2.4911,2.4904,2.4858,2.4876,2.4872,2.487,2.4758,2.4757,2.4756,0,0,0,0,0,0,2.5148,2.5139,2.5052,2.5088,2.5076,2.5041,2.502,2.5015,2.4998,2.4959,2.4952,2.4983,2.4919,2.4909,2.4869,2.4855,2.4871,2.4867,2.4759,2.4757,2.4756,2.4767,0,0,0,0,0,0,2.5152,2.514,2.5128,2.5088,2.5074,2.502,2.502,2.5013,2.4993,2.4991,2.4947,2.4941,2.4919,2.4874,2.4865,2.485,2.4864,2.476,2.4758,2.4757,2.4768,2.4766,2.4765,0,0,0,0,0,2.5156,2.5133,2.5128,2.5118,2.5059,2.5019,2.5011,2.4989,2.4992,2.4978,2.4952,2.4942,2.4858,2.4871,2.486,2.4843,2.476,2.4759,2.4757,2.4768,2.4767,2.4765,0,0,0,0,0,0,2.5171,2.5127,2.5121,2.5085,2.5056,2.5016,2.4998,2.4988,2.4956,2.4956,2.4928,2.4918,2.4879,2.4857,2.4871,2.4805,2.4809,2.4805,2.4821,2.4819,2.4818,2.4823,2.4861,0,0,0,0,0,2.517,2.5144,2.5107,2.5078,2.5064,2.5034,2.5016,2.5001,2.4969,2.4956,2.4927,2.4895,2.4861,2.4839,2.4806,2.4765,2.4753,2.4748,2.4747,2.4746,2.4742,2.4716,2.4712,2.475,2.475,2.475,0,0,2.5168,2.5141,2.5126,2.5081,2.5057,2.5027,2.5024,2.4993,2.497,2.4951,2.4911,2.4888,2.485,2.4808,2.4788,2.4789,2.4729,2.4744,2.4743,2.474,2.4714,2.471,2.4707,2.4749,2.4749,2.4749,0,0,2.515,2.5128,2.5101,2.5077,2.5041,2.5021,2.5015,2.4975,2.496,2.492,2.4904,2.4875,2.4818,2.479,2.4769,2.4738,2.4726,2.4728,2.4721,2.4696,2.4693,2.469,2.4676,2.4672,2.4725,2.4725,2.4725,0,2.5151,2.5109,2.5088,2.5058,2.5037,2.502,2.4991,2.4968,2.4922,2.4907,2.4909,2.4835,2.4808,2.4759,2.4751,2.4735,2.4724,2.4732,2.4695,2.4692,2.4689,2.4676,2.4671,2.4725,2.4725,2.4725,2.4725,0,2.5111,2.5082,2.5064,2.5022,2.4999,2.497,2.4942,2.492,2.4907,2.4886,2.4843,2.481,2.4769,2.4756,2.4743,2.4704,2.4705,2.4702,2.4704,2.4686,2.4673,2.4668,2.4725,2.4725,2.4725,2.4725,0,0,2.51,2.5047,2.504,2.502,2.4979,2.4954,2.4923,2.4884,2.4866,2.4834,2.4805,2.4756,2.4752,2.4728,2.4711,2.4689,2.4663,2.4687,2.4686,2.4682,2.4616,2.4617,2.4612,2.4656,2.4655,2.4654,2.4618,0,2.5075,2.5021,2.5,2.4954,2.4925,2.4907,2.4879,2.4849,2.4828,2.4798,2.4773,2.4738,2.4737,2.4722,2.47,2.4672,2.4649,2.4674,2.4625,2.4624,2.4634,2.4606,2.4608,2.4576,2.4613,2.4612,2.4612,0,2.5038,2.5008,2.496,2.4921,2.4907,2.4883,2.4845,2.4818,2.4782,2.4767,2.474,2.4724,2.4686,2.4692,2.4639,2.4656,2.4634,2.4617,2.4615,2.4609,2.4616,2.4596,2.4565,2.4559,2.4604,2.4604,2.4605,0,2.5033,2.498,2.4944,2.4927,2.4881,2.4863,2.4843,2.4808,2.4785,2.4751,2.4736,2.4697,2.4675,2.4644,2.4616,2.4624,2.4564,2.4569,2.4549,2.4549,2.4536,2.4537,2.4499,2.4526,2.4526,2.4526,2.4526,0,2.5006,2.4976,2.494,2.4918,2.4884,2.4859,2.4824,2.4802,2.4771,2.4741,2.4723,2.4695,2.4662,2.4629,2.4606,2.4564,2.4555,2.454,2.4534,2.454,2.4542,2.4525,2.4525,2.4524,2.4525,2.4525,2.4525,0,2.4994,2.4969,2.4928,2.4887,2.4876,2.4852,2.4816,2.4792,2.477,2.4732,2.4722,2.4686,2.4646,2.4615,2.4563,2.4548,2.4502,2.4497,2.4515,2.4511,2.4492,2.4494,2.4441,2.4431,2.4466,2.4466,2.4466,0,2.4978,2.4955,2.4912,2.4892,2.4872,2.484,2.4817,2.4791,2.4767,2.4724,2.4704,2.4663,2.4629,2.4565,2.4532,2.4491,2.4483,2.4467,2.4476,2.4483,2.448,2.4481,2.4477,2.4465,2.4465,2.4465,2.4465,0,2.4951,2.4939,2.4909,2.4872,2.4846,2.4816,2.4785,2.4769,2.4737,2.471,2.467,2.4644,2.459,2.4548,2.4504,2.4479,2.4465,2.4462,2.4455,2.4461,2.4471,2.4463,2.4509,2.4463,2.4463,2.4463,2.4464,2.4464,2.4935,2.4913,2.4879,2.4844,2.4818,2.479,2.4765,2.4739,2.4706,2.4662,2.4648,2.4605,2.4567,2.4506,2.448,2.4444,2.4444,2.4435,2.4432,2.4429,2.4428,2.4478,2.4436,2.4436,2.4436,2.4436,2.4436,0,2.4905,2.4882,2.4851,2.4809,2.4781,2.4773,2.4738,2.4714,2.4677,2.4644,2.4611,2.4563,2.4522,2.4486,2.4442,2.442,2.4412,2.4409,2.4409,2.4403,2.4432,2.4442,2.4416,2.4416,2.4416,2.4416,2.4416,2.4416,2.4887,2.4848,2.4832,2.478,2.4756,2.4716,2.4697,2.4669,2.4642,2.459,2.4556,2.4534,2.4498,2.4451,2.4412,2.4402,2.4385,2.4384,2.4372,2.4399,2.4402,2.4404,2.4413,2.4381,2.4381,2.4345,2.4345,2.4345]}]]